Starlink 3617

operational
NORAD ID: 51780 Int'l Des: 2022-017 Owner: SPXS Country: US Constellation: starlink
LEOCIRCULAR

About Starlink 3617

Description loading...

Live Position

Loading 3D Globe...

Upcoming Passes

Altitude History

Altitude vs Time

uPlot chart will show altitude changes over time

Two-Line Element Set

1 51780U 22017N 25353.22748116 -.00000425 00000-0 -85973-5 0 9992
2 51780 53.2188 340.3206 0001308 88.5951 271.5191 15.08845420210271
Epoch: Dec 19, 2025 • Age: 15 hours

Current Status

Altitude 541.5 km
Velocity 7.60 km/s
Sub-Earth Point 33.97°N, 20.42°W
Launch Date Feb 25, 2022
Age 3.8 years
Type internet

Technical Details

Classification Payload
Mass 297.00 kg
Dry Mass 275.00 kg
Total Mass 297.00 kg
Length 0.20 m
Diameter 2.80 m
Span 9.00 m
Shape Box + pan
Manufacturer SPXS
Bus Type Starlink
Phase Status In Orbit
Owner/State SPXS/US

Large Constellations

Loading constellations...